Find Starlink 30519

NORAD ID: 57985 Int'l Des: 2023-151 Owner: SPXS Country: US Constellation: starlink operational
LEOCIRCULAR

リアルタイム位置

3D地球を読み込み中...

Starlink 30519について

説明を読み込み中...

次回通過

Passes for default location (London). Set your location on the main map for personalized predictions.

高度履歴

Loading altitude history...

軌道要素

1 57985U 23151X 26123.82641882 .00015423 00000-0 56855-3 0 9996
2 57985 43.0057 39.4817 0001375 268.2778 91.7916 15.27596034143961
Epoch: May 3, 2026 • Age: 5 hours

現在のステータス

高度 482.4 km
速度 7.63 km/s
衛星直下点 15.64°N, 175.84°W
打ち上げ日 Sep 30, 2023
運用期間 2.5 years
タイプ internet

技術仕様

分類 Payload
質量 730.00 kg
乾燥質量 700.00 kg
総質量 730.00 kg
長さ 0.30 m
直径 4.10 m
スパン 29.00 m
形状 Box + pan
製造者 SPXS
バスタイプ Starlink V2M
フェーズステータス In Orbit
所有者/国 SPXS/US

Most Searched